Погода в Эль-Ариш

Египет     31°05′04″N   33°49′42″E
темп.,
°C
ветер,
м/с
пор.,
м/с
влажн.,
%
обл.,
%
осадки,
мм/ч
давл.,
гПа
погр.,
м
16 мая, вс
вс1623:00+21в22690 0.0 1012105
02:00+19ююв11730 0.0 101119
05:00+19вюв22710 0.0 101022
08:00+23юв34390 0.0 1011308
11:00+30в22170 0.0 1009618
14:00+30ссв65245 0.0 1008553
17:00+25ссв7843100 0.0 1008402
20:00+23всв56530 0.0 1009283
17 мая, пн
пн1723:00+22с34605 0.0 1009135
02:00+21ссз33705 0.0 100972
05:00+21с337116 0.0 101046
08:00+23с33599 0.0 1012708
11:00+25ссз54490 0.0 1012891
14:00+25ссз66510 0.0 1012875
17:00+23ссз65565 0.0 1012704
20:00+22с55645 0.0 1013664
18 мая, вт
вт1823:00+21с34681 0.0 1014471
02:00+20с22745 0.0 101364
05:00+19ссв12786 0.0 101338
08:00+22ссв22650 0.0 1014705
11:00+25с54500 0.0 1014829
14:00+25с66470 0.0 1013743
17:00+23с66590 0.0 1013618
20:00+22с45670 0.0 1014545
19 мая, ср
ср1923:00+21ссв34730 0.0 1014209
02:00+20с22790 0.0 101335
05:00+19всв12840 0.0 101330
08:00+22ссв23660 0.0 1013498
11:00+26с54480 0.0 1013692
14:00+26с65450 0.0 1012596
17:00+24с66580 0.0 1011577
20:00+23с46690 0.0 1012484
20 мая, чт
чт2023:00+22с23770 0.0 1012177
02:00+21ссв22810 0.0 101139
05:00+20ссз22820 0.0 101232
08:00+23с33600 0.0 1012549
11:00+27с45400 0.0 1011677
14:00+27ссз77440 0.0 1010630
17:00+25ссз67530 0.0 1010552
20:00+23ссз56660 0.0 1011480